Time,TemperatureF,DewpointF,PressureIn,WindDirection,WindDirectionDegrees,WindSpeedMPH,WindSpeedGustMPH,Humidity,HourlyPrecipIn,Conditions,Clouds,dailyrainin,SoftwareType,DateUTC
2013-04-22 00:03:00,35.0,27.0,30.67,North,-999,-999.0,-999.0,72,0.00,,,0.00,,2013-04-22 04:03:00,
2013-04-22 00:12:00,35.0,27.0,30.67,North,-999,-999.0,-999.0,72,0.00,,,0.00,,2013-04-22 04:12:00,
2013-04-22 00:23:00,35.0,28.0,30.67,North,-999,-999.0,-999.0,74,0.00,,,0.00,,2013-04-22 04:23:00,
2013-04-22 00:33:00,35.0,28.0,30.67,North,-999,-999.0,-999.0,75,0.00,,,0.00,,2013-04-22 04:33:00,
2013-04-22 00:43:00,35.0,28.0,30.67,North,-999,-999.0,-999.0,75,0.00,,,0.00,,2013-04-22 04:43:00,
2013-04-22 00:52:00,35.0,28.0,30.68,North,-999,-999.0,-999.0,76,0.00,,,0.00,,2013-04-22 04:52:00,
2013-04-22 01:03:00,35.0,29.0,30.68,North,-999,-999.0,-999.0,77,0.00,,,0.00,,2013-04-22 05:03:00,
2013-04-22 01:12:00,35.0,29.0,30.68,North,-999,-999.0,-999.0,77,0.00,,,0.00,,2013-04-22 05:12:00,
2013-04-22 01:22:00,34.0,28.0,30.68,North,-999,-999.0,-999.0,77,0.00,,,0.00,,2013-04-22 05:22:00,
2013-04-22 01:33:00,34.0,27.0,30.67,North,-999,-999.0,-999.0,76,0.00,,,0.00,,2013-04-22 05:33:00,
2013-04-22 01:42:00,34.0,27.0,30.67,North,-999,-999.0,-999.0,76,0.00,,,0.00,,2013-04-22 05:42:00,
2013-04-22 01:52:00,33.0,27.0,30.67,North,-999,-999.0,-999.0,77,0.00,,,0.00,,2013-04-22 05:52:00,
2013-04-22 02:02:00,33.0,27.0,30.67,North,-999,-999.0,-999.0,79,0.00,,,0.00,,2013-04-22 06:02:00,
2013-04-22 02:12:00,33.0,27.0,30.67,North,-999,-999.0,-999.0,79,0.00,,,0.00,,2013-04-22 06:12:00,
2013-04-22 02:21:00,33.0,27.0,30.67,North,-999,-999.0,-999.0,79,0.00,,,0.00,,2013-04-22 06:21:00,
2013-04-22 02:32:00,32.0,27.0,30.67,North,-999,-999.0,-999.0,80,0.00,,,0.00,,2013-04-22 06:32:00,
2013-04-22 02:42:00,32.0,27.0,30.67,North,-999,-999.0,-999.0,80,0.00,,,0.00,,2013-04-22 06:42:00,
2013-04-22 02:52:00,32.0,27.0,30.67,North,-999,-999.0,-999.0,81,0.00,,,0.00,,2013-04-22 06:52:00,
2013-04-22 03:01:00,32.0,27.0,30.66,North,-999,-999.0,-999.0,82,0.00,,,0.00,,2013-04-22 07:01:00,
2013-04-22 03:12:00,32.0,27.0,30.66,North,-999,-999.0,-999.0,82,0.00,,,0.00,,2013-04-22 07:12:00,
2013-04-22 03:21:00,31.0,26.0,30.66,North,-999,-999.0,-999.0,82,0.00,,,0.00,,2013-04-22 07:21:00,
2013-04-22 03:32:00,31.0,27.0,30.67,North,-999,-999.0,-999.0,84,0.00,,,0.00,,2013-04-22 07:32:00,
2013-04-22 03:42:00,31.0,27.0,30.67,North,-999,-999.0,-999.0,84,0.00,,,0.00,,2013-04-22 07:42:00,
2013-04-22 03:52:00,31.0,27.0,30.67,North,-999,-999.0,-999.0,84,0.00,,,0.00,,2013-04-22 07:52:00,
2013-04-22 04:02:00,30.0,26.0,30.67,North,-999,-999.0,-999.0,84,0.00,,,0.00,,2013-04-22 08:02:00,
2013-04-22 04:11:00,30.0,26.0,30.67,North,-999,-999.0,-999.0,84,0.00,,,0.00,,2013-04-22 08:11:00,
2013-04-22 04:22:00,30.0,26.0,30.68,North,-999,-999.0,-999.0,85,0.00,,,0.00,,2013-04-22 08:22:00,
2013-04-22 04:32:00,30.0,26.0,30.68,North,-999,-999.0,-999.0,86,0.00,,,0.00,,2013-04-22 08:32:00,
2013-04-22 04:42:00,30.0,26.0,30.68,North,-999,-999.0,-999.0,86,0.00,,,0.00,,2013-04-22 08:42:00,
2013-04-22 04:52:00,30.0,26.0,30.68,North,-999,-999.0,-999.0,86,0.00,,,0.00,,2013-04-22 08:52:00,
2013-04-22 05:01:00,30.0,26.0,30.68,North,-999,-999.0,-999.0,86,0.00,,,0.00,,2013-04-22 09:01:00,
2013-04-22 05:11:00,30.0,26.0,30.68,North,-999,-999.0,-999.0,86,0.00,,,0.00,,2013-04-22 09:11:00,
2013-04-22 05:21:00,29.0,25.0,30.69,North,-999,-999.0,-999.0,86,0.00,,,0.00,,2013-04-22 09:21:00,
2013-04-22 05:33:00,29.0,26.0,30.69,North,-999,-999.0,-999.0,87,0.00,,,0.00,,2013-04-22 09:33:00,
2013-04-22 05:42:00,29.0,26.0,30.69,North,-999,-999.0,-999.0,87,0.00,,,0.00,,2013-04-22 09:42:00,
2013-04-22 05:52:00,29.0,26.0,30.70,North,-999,-999.0,-999.0,87,0.00,,,0.00,,2013-04-22 09:52:00,
2013-04-22 06:03:00,29.0,26.0,30.70,North,-999,-999.0,-999.0,87,0.00,,,0.00,,2013-04-22 10:03:00,
2013-04-22 06:12:00,29.0,26.0,30.70,North,-999,-999.0,-999.0,87,0.00,,,0.00,,2013-04-22 10:12:00,
2013-04-22 06:22:00,29.0,26.0,30.70,North,-999,-999.0,-999.0,88,0.00,,,0.00,,2013-04-22 10:22:00,
2013-04-22 06:32:00,29.0,26.0,30.70,North,-999,-999.0,-999.0,88,0.00,,,0.00,,2013-04-22 10:32:00,
2013-04-22 06:42:00,29.0,26.0,30.70,North,-999,-999.0,-999.0,88,0.00,,,0.00,,2013-04-22 10:42:00,
2013-04-22 06:52:00,29.0,26.0,30.70,North,-999,-999.0,-999.0,88,0.00,,,0.00,,2013-04-22 10:52:00,
2013-04-22 07:02:00,30.0,27.0,30.71,North,-999,-999.0,-999.0,88,0.00,,,0.00,,2013-04-22 11:02:00,
2013-04-22 07:12:00,30.0,27.0,30.71,North,-999,-999.0,-999.0,88,0.00,,,0.00,,2013-04-22 11:12:00,
2013-04-22 07:22:00,30.0,27.0,30.71,North,-999,-999.0,-999.0,88,0.00,,,0.00,,2013-04-22 11:22:00,
2013-04-22 07:32:00,31.0,28.0,30.71,North,-999,-999.0,-999.0,88,0.00,,,0.00,,2013-04-22 11:32:00,
2013-04-22 07:42:00,31.0,28.0,30.71,North,-999,-999.0,-999.0,88,0.00,,,0.00,,2013-04-22 11:42:00,
2013-04-22 07:52:00,32.0,28.0,30.71,North,-999,-999.0,-999.0,85,0.00,,,0.00,,2013-04-22 11:52:00,
2013-04-22 08:02:00,34.0,29.0,30.72,North,-999,-999.0,-999.0,81,0.00,,,0.00,,2013-04-22 12:02:00,
2013-04-22 08:12:00,34.0,29.0,30.72,North,-999,-999.0,-999.0,81,0.00,,,0.00,,2013-04-22 12:12:00,
2013-04-22 08:21:00,35.0,28.0,30.72,North,-999,-999.0,-999.0,75,0.00,,,0.00,,2013-04-22 12:21:00,
2013-04-22 08:32:00,36.0,28.0,30.72,North,-999,-999.0,-999.0,73,0.00,,,0.00,,2013-04-22 12:32:00,
2013-04-22 08:42:00,36.0,28.0,30.72,North,-999,-999.0,-999.0,73,0.00,,,0.00,,2013-04-22 12:42:00,
2013-04-22 08:52:00,38.0,29.0,30.72,North,-999,-999.0,-999.0,70,0.00,,,0.00,,2013-04-22 12:52:00,
2013-04-22 09:01:00,41.0,30.0,30.71,North,-999,-999.0,-999.0,65,0.00,,,0.00,,2013-04-22 13:01:00,
2013-04-22 09:11:00,41.0,30.0,30.71,North,-999,-999.0,-999.0,65,0.00,,,0.00,,2013-04-22 13:11:00,
2013-04-22 09:22:00,43.0,28.0,30.71,North,-999,-999.0,-999.0,55,0.00,,,0.00,,2013-04-22 13:22:00,
2013-04-22 09:32:00,46.0,29.0,30.71,North,-999,-999.0,-999.0,52,0.00,,,0.00,,2013-04-22 13:32:00,
2013-04-22 09:42:00,46.0,29.0,30.71,North,-999,-999.0,-999.0,52,0.00,,,0.00,,2013-04-22 13:42:00,
2013-04-22 09:52:00,47.0,29.0,30.71,North,-999,-999.0,-999.0,49,0.00,,,0.00,,2013-04-22 13:52:00,
2013-04-22 10:02:00,48.0,29.0,30.71,North,-999,-999.0,-999.0,48,0.00,,,0.00,,2013-04-22 14:02:00,
2013-04-22 10:12:00,48.0,24.0,30.71,North,-999,-999.0,-999.0,39,0.00,,,0.00,,2013-04-22 14:12:00,
2013-04-22 10:21:00,48.0,24.0,30.71,North,-999,-999.0,-999.0,39,0.00,,,0.00,,2013-04-22 14:21:00,
2013-04-22 10:33:00,49.0,26.0,30.73,North,-999,-999.0,-999.0,40,0.00,,,0.00,,2013-04-22 14:33:00,
2013-04-22 10:42:00,49.0,26.0,30.73,North,-999,-999.0,-999.0,40,0.00,,,0.00,,2013-04-22 14:42:00,
2013-04-22 10:52:00,49.0,22.0,30.74,North,-999,-999.0,-999.0,34,0.00,,,0.00,,2013-04-22 14:52:00,
2013-04-22 11:02:00,50.0,25.0,30.74,North,-999,-999.0,-999.0,38,0.00,,,0.00,,2013-04-22 15:02:00,
2013-04-22 11:12:00,50.0,25.0,30.74,North,-999,-999.0,-999.0,38,0.00,,,0.00,,2013-04-22 15:12:00,
2013-04-22 11:22:00,50.0,23.0,30.73,North,-999,-999.0,-999.0,34,0.00,,,0.00,,2013-04-22 15:22:00,
2013-04-22 11:33:00,51.0,21.0,30.72,North,-999,-999.0,-999.0,31,0.00,,,0.00,,2013-04-22 15:33:00,
2013-04-22 11:43:00,51.0,21.0,30.72,North,-999,-999.0,-999.0,31,0.00,,,0.00,,2013-04-22 15:43:00,
2013-04-22 11:53:00,50.0,23.0,30.71,North,-999,-999.0,-999.0,34,0.00,,,0.00,,2013-04-22 15:53:00,
2013-04-22 12:03:00,51.0,26.0,30.71,North,-999,-999.0,-999.0,37,0.00,,,0.00,,2013-04-22 16:03:00,
2013-04-22 12:12:00,51.0,26.0,30.71,North,-999,-999.0,-999.0,37,0.00,,,0.00,,2013-04-22 16:12:00,
2013-04-22 12:23:00,51.0,21.0,30.71,North,-999,-999.0,-999.0,30,0.00,,,0.00,,2013-04-22 16:23:00,
2013-04-22 12:33:00,52.0,25.0,30.70,North,-999,-999.0,-999.0,35,0.00,,,0.00,,2013-04-22 16:33:00,
2013-04-22 12:42:00,52.0,25.0,30.70,North,-999,-999.0,-999.0,35,0.00,,,0.00,,2013-04-22 16:42:00,
2013-04-22 12:52:00,50.0,23.0,30.70,North,-999,-999.0,-999.0,34,0.00,,,0.00,,2013-04-22 16:52:00,
2013-04-22 13:02:00,51.0,24.0,30.69,North,-999,-999.0,-999.0,34,0.00,,,0.00,,2013-04-22 17:02:00,
2013-04-22 13:12:00,51.0,24.0,30.69,North,-999,-999.0,-999.0,34,0.00,,,0.00,,2013-04-22 17:12:00,
2013-04-22 13:22:00,50.0,23.0,30.69,North,-999,-999.0,-999.0,34,0.00,,,0.00,,2013-04-22 17:22:00,
2013-04-22 13:32:00,50.0,25.0,30.70,North,-999,-999.0,-999.0,37,0.00,,,0.00,,2013-04-22 17:32:00,
2013-04-22 13:42:00,50.0,25.0,30.70,North,-999,-999.0,-999.0,37,0.00,,,0.00,,2013-04-22 17:42:00,
2013-04-22 13:52:00,51.0,24.0,30.69,North,-999,-999.0,-999.0,35,0.00,,,0.00,,2013-04-22 17:52:00,
2013-04-22 14:02:00,49.0,22.0,30.68,North,-999,-999.0,-999.0,34,0.00,,,0.00,,2013-04-22 18:02:00,
2013-04-22 14:12:00,49.0,22.0,30.68,North,-999,-999.0,-999.0,34,0.00,,,0.00,,2013-04-22 18:12:00,
2013-04-22 14:22:00,51.0,24.0,30.68,North,-999,-999.0,-999.0,34,0.00,,,0.00,,2013-04-22 18:22:00,
2013-04-22 14:32:00,51.0,24.0,30.68,North,-999,-999.0,-999.0,34,0.00,,,0.00,,2013-04-22 18:32:00,
2013-04-22 14:42:00,51.0,24.0,30.68,North,-999,-999.0,-999.0,34,0.00,,,0.00,,2013-04-22 18:42:00,
2013-04-22 14:52:00,50.0,20.0,30.66,North,-999,-999.0,-999.0,30,0.00,,,0.00,,2013-04-22 18:52:00,
2013-04-22 15:01:00,51.0,23.0,30.66,North,-999,-999.0,-999.0,33,0.00,,,0.00,,2013-04-22 19:01:00,
2013-04-22 15:12:00,51.0,23.0,30.66,North,-999,-999.0,-999.0,33,0.00,,,0.00,,2013-04-22 19:12:00,
2013-04-22 15:22:00,50.0,22.0,30.65,North,-999,-999.0,-999.0,33,0.00,,,0.00,,2013-04-22 19:22:00,
2013-04-22 15:32:00,50.0,19.0,30.65,North,-999,-999.0,-999.0,29,0.00,,,0.00,,2013-04-22 19:32:00,
2013-04-22 15:42:00,50.0,19.0,30.65,North,-999,-999.0,-999.0,29,0.00,,,0.00,,2013-04-22 19:42:00,
2013-04-22 15:52:00,50.0,20.0,30.64,North,-999,-999.0,-999.0,30,0.00,,,0.00,,2013-04-22 19:52:00,
2013-04-22 16:02:00,50.0,24.0,30.64,North,-999,-999.0,-999.0,36,0.00,,,0.00,,2013-04-22 20:02:00,
2013-04-22 16:11:00,50.0,24.0,30.64,North,-999,-999.0,-999.0,36,0.00,,,0.00,,2013-04-22 20:11:00,
2013-04-22 16:22:00,49.0,26.0,30.64,North,-999,-999.0,-999.0,40,0.00,,,0.00,,2013-04-22 20:22:00,
2013-04-22 16:32:00,49.0,27.0,30.64,North,-999,-999.0,-999.0,43,0.00,,,0.00,,2013-04-22 20:32:00,
2013-04-22 16:42:00,49.0,27.0,30.64,North,-999,-999.0,-999.0,43,0.00,,,0.00,,2013-04-22 20:42:00,
2013-04-22 16:52:00,49.0,29.0,30.65,North,-999,-999.0,-999.0,46,0.00,,,0.00,,2013-04-22 20:52:00,
2013-04-22 17:02:00,47.0,29.0,30.63,North,-999,-999.0,-999.0,50,0.00,,,0.00,,2013-04-22 21:02:00,
2013-04-22 17:12:00,47.0,29.0,30.63,North,-999,-999.0,-999.0,50,0.00,,,0.00,,2013-04-22 21:12:00,
2013-04-22 17:21:00,47.0,30.0,30.63,North,-999,-999.0,-999.0,52,0.00,,,0.00,,2013-04-22 21:21:00,
2013-04-22 17:33:00,47.0,32.0,30.63,North,-999,-999.0,-999.0,55,0.00,,,0.00,,2013-04-22 21:33:00,
2013-04-22 17:43:00,47.0,32.0,30.63,North,-999,-999.0,-999.0,55,0.00,,,0.00,,2013-04-22 21:43:00,
2013-04-22 17:53:00,45.0,31.0,30.63,North,-999,-999.0,-999.0,58,0.00,,,0.00,,2013-04-22 21:53:00,
2013-04-22 18:03:00,45.0,32.0,30.63,North,-999,-999.0,-999.0,59,0.00,,,0.00,,2013-04-22 22:03:00,
2013-04-22 18:12:00,45.0,32.0,30.63,North,-999,-999.0,-999.0,59,0.00,,,0.00,,2013-04-22 22:12:00,
2013-04-22 18:22:00,45.0,32.0,30.63,North,-999,-999.0,-999.0,60,0.00,,,0.00,,2013-04-22 22:22:00,
2013-04-22 18:33:00,44.0,31.0,30.63,North,-999,-999.0,-999.0,61,0.00,,,0.00,,2013-04-22 22:33:00,
2013-04-22 18:42:00,44.0,31.0,30.63,North,-999,-999.0,-999.0,61,0.00,,,0.00,,2013-04-22 22:42:00,
2013-04-22 18:52:00,44.0,31.0,30.63,North,-999,-999.0,-999.0,61,0.00,,,0.00,,2013-04-22 22:52:00,
2013-04-22 19:02:00,44.0,31.0,30.63,North,-999,-999.0,-999.0,59,0.00,,,0.00,,2013-04-22 23:02:00,
2013-04-22 19:11:00,43.0,30.0,30.63,North,-999,-999.0,-999.0,60,0.00,,,0.00,,2013-04-22 23:11:00,
2013-04-22 19:22:00,43.0,30.0,30.63,North,-999,-999.0,-999.0,60,0.00,,,0.00,,2013-04-22 23:22:00,
2013-04-22 19:33:00,43.0,31.0,30.63,North,-999,-999.0,-999.0,63,0.00,,,0.00,,2013-04-22 23:33:00,
2013-04-22 19:42:00,43.0,31.0,30.63,North,-999,-999.0,-999.0,63,0.00,,,0.00,,2013-04-22 23:42:00,
2013-04-22 19:52:00,42.0,29.0,30.63,North,-999,-999.0,-999.0,60,0.00,,,0.00,,2013-04-22 23:52:00,
2013-04-22 20:02:00,41.0,30.0,30.63,North,-999,-999.0,-999.0,64,0.00,,,0.00,,2013-04-23 00:02:00,
2013-04-22 20:12:00,41.0,30.0,30.63,North,-999,-999.0,-999.0,64,0.00,,,0.00,,2013-04-23 00:12:00,
2013-04-22 20:21:00,41.0,30.0,30.63,North,-999,-999.0,-999.0,65,0.00,,,0.00,,2013-04-23 00:21:00,
2013-04-22 20:32:00,41.0,30.0,30.62,North,-999,-999.0,-999.0,65,0.00,,,0.00,,2013-04-23 00:32:00,
2013-04-22 20:42:00,41.0,30.0,30.62,North,-999,-999.0,-999.0,65,0.00,,,0.00,,2013-04-23 00:42:00,
2013-04-22 20:51:00,40.0,29.0,30.63,North,-999,-999.0,-999.0,65,0.00,,,0.00,,2013-04-23 00:51:00,
2013-04-22 21:01:00,40.0,29.0,30.63,North,-999,-999.0,-999.0,65,0.00,,,0.00,,2013-04-23 01:01:00,
2013-04-22 21:11:00,40.0,29.0,30.63,North,-999,-999.0,-999.0,65,0.00,,,0.00,,2013-04-23 01:11:00,
2013-04-22 21:21:00,40.0,30.0,30.63,North,-999,-999.0,-999.0,66,0.00,,,0.00,,2013-04-23 01:21:00,
2013-04-22 21:32:00,39.0,29.0,30.63,North,-999,-999.0,-999.0,68,0.00,,,0.00,,2013-04-23 01:32:00,
2013-04-22 21:42:00,39.0,29.0,30.63,North,-999,-999.0,-999.0,68,0.00,,,0.00,,2013-04-23 01:42:00,
2013-04-22 21:52:00,39.0,30.0,30.63,North,-999,-999.0,-999.0,69,0.00,,,0.00,,2013-04-23 01:52:00,
2013-04-22 22:02:00,39.0,30.0,30.62,North,-999,-999.0,-999.0,69,0.00,,,0.00,,2013-04-23 02:02:00,
2013-04-22 22:12:00,39.0,30.0,30.62,North,-999,-999.0,-999.0,69,0.00,,,0.00,,2013-04-23 02:12:00,
2013-04-22 22:21:00,38.0,28.0,30.62,North,-999,-999.0,-999.0,68,0.00,,,0.00,,2013-04-23 02:21:00,
2013-04-22 22:32:00,38.0,29.0,30.62,North,-999,-999.0,-999.0,70,0.00,,,0.00,,2013-04-23 02:32:00,
2013-04-22 22:42:00,38.0,29.0,30.62,North,-999,-999.0,-999.0,70,0.00,,,0.00,,2013-04-23 02:42:00,
2013-04-22 22:52:00,38.0,29.0,30.61,North,-999,-999.0,-999.0,70,0.00,,,0.00,,2013-04-23 02:52:00,
2013-04-22 23:01:00,38.0,29.0,30.60,North,-999,-999.0,-999.0,71,0.00,,,0.00,,2013-04-23 03:01:00,
2013-04-22 23:11:00,38.0,29.0,30.60,North,-999,-999.0,-999.0,71,0.00,,,0.00,,2013-04-23 03:11:00,
2013-04-22 23:21:00,38.0,29.0,30.60,North,-999,-999.0,-999.0,71,0.00,,,0.00,,2013-04-23 03:21:00,
2013-04-22 23:33:00,38.0,29.0,30.59,North,-999,-999.0,-999.0,71,0.00,,,0.00,,2013-04-23 03:33:00,
2013-04-22 23:43:00,38.0,29.0,30.59,North,-999,-999.0,-999.0,71,0.00,,,0.00,,2013-04-23 03:43:00,
2013-04-22 23:53:00,38.0,29.0,30.59,North,-999,-999.0,-999.0,71,0.00,,,0.00,,2013-04-23 03:53:00,